Wind_Speed
29 27 25 21 19 17 15 13 13 14 14 12 11 10 9 8 7 7 7 7 7 6
30 30 27 24 21 22 17 13 12 15 15 15 13 13 11 10 9 8 8 7 9 9
32 31 31 25 24 21 19 18 14 14 15 15 14 14 14 12 12 10 10 9 9 10
34 32 30 28 26 23 20 19 18 16 15 16 16 15 15 14 13 12 12 12 12 12
35 33 31 29 28 24 22 21 21 19 17 17 17 16 16 16 15 14 15 14 15 15
36 34 33 32 29 27 24 23 22 21 21 20 19 19 18 18 17 17 17 16 16 16
35 35 36 34 31 28 28 25 24 24 23 22 21 21 20 20 19 19 19 18 18 17
36 35 34 32 32 30 29 27 26 25 24 23 23 24 23 22 22 22 22 21 21 20
34 35 35 32 31 30 29 29 26 27 26 26 27 27 29 27 23 23 24 24 23 23
36 35 35 34 32 31 31 29 29 28 27 29 29 29 31 32 29 26 26 26 25 25
35 35 33 32 32 32 31 30 30 28 29 28 30 32 33 34 31 28 30 30 29 29
36 33 32 32 32 31 30 29 30 29 28 29 30 31 33 33 27 29 31 30 31 32
34 34 34 32 31 31 29 29 28 30 30 31 31 31 33 33 27 27 28 28 30 33
32 31 32 31 30 30 29 26 28 26 27 28 27 29 30 33 31 28 27 28 27 28
Wind_Direction
207 212 218 220 226 224 227 230 229 222 222 221 220 216 216 214 211 201 210 217 228 244
209 214 219 224 226 231 230 232 231 225 223 224 219 220 222 225 225 224 221 222 227 233
213 214 220 222 225 227 228 227 230 225 222 218 215 215 221 229 231 228 233 234 230 240
210 213 217 221 226 226 224 223 226 224 222 220 219 216 218 226 237 232 233 234 236 238
207 209 213 220 224 224 223 221 225 225 223 224 222 220 220 223 231 236 236 236 237 242
208 210 212 216 218 220 221 221 223 223 223 225 225 224 226 228 231 237 240 241 239 243
203 204 208 213 214 214 216 219 221 222 223 225 226 227 227 230 233 237 242 243 245 244
201 203 208 209 209 211 214 218 222 223 225 226 226 229 229 230 234 238 243 243 245 247
200 201 205 207 208 209 212 215 217 221 223 225 229 231 230 228 232 237 241 245 248 249
198 201 203 204 206 208 210 213 217 219 221 225 228 231 232 234 232 236 240 243 246 251
198 202 203 202 205 207 210 210 214 218 222 226 229 232 234 234 233 237 241 245 246 247
197 198 200 202 205 207 209 211 216 219 221 225 231 233 236 235 233 239 242 244 246 246
197 195 197 200 201 204 208 212 216 220 222 226 231 235 237 235 230 237 241 244 247 249
199 199 198 198 200 202 205 211 217 220 222 225 230 235 237 237 226 232 237 242 246 249
Height
827 832 836 839 841 843 845 847 851 854 857 860 862 864 866 867 868 869 870 871 871 870
821 826 829 833 837 839 842 844 848 851 853 855 858 860 862 864 865 866 868 868 869 869
814 819 824 828 832 835 837 841 843 846 849 851 853 856 858 860 861 863 864 864 865 866
805 811 816 822 826 829 833 836 838 841 844 846 849 851 854 856 857 858 860 861 862 863
797 803 809 814 819 823 827 829 832 836 839 842 844 847 849 851 853 854 855 856 858 858
787 794 800 805 811 816 820 823 826 829 832 835 838 841 844 846 848 850 850 851 852 853
778 784 790 796 802 807 812 817 819 822 825 829 832 835 838 841 843 844 845 846 847 848
769 776 783 789 794 800 805 809 813 817 820 822 825 827 830 834 837 838 839 841 841 842
761 767 773 781 787 792 797 801 806 809 812 815 817 818 822 826 830 832 833 834 835 836
752 758 764 771 779 784 788 794 797 801 804 805 808 811 814 817 822 825 826 827 828 829
743 750 758 764 770 775 781 785 789 792 795 798 800 803 806 809 814 817 818 819 819 820
734 742 750 756 761 767 773 777 780 784 787 790 792 794 797 802 807 808 808 809 810 811
728 733 740 747 754 760 765 769 773 775 778 781 783 786 789 793 798 799 800 801 800 800
723 729 734 741 747 752 757 761 765 768 771 773 775 778 779 783 788 790 791 791 791 791